Regional Weather Roundup
Issued by NWS Kansas City/Pleasant Hill, MO

Home | Current Version | Previous Version | Text Only | Print | Product List | Glossary On
Versions: 1 2 3 4 5 6 7 8 9 10 11 12 13 14 15 16 17 18 19 20 21 22 23 24 25 26 27 28 29 30 31 32 33 34 35 36 37 38 39 40 41 42 43 44 45 46 47 48 49 50
000
ASUS43 KEAX 030610
RWREAX

WEATHER ROUNDUP FOR EASTERN KANSAS AND NORTHWEST MISSOURI
NATIONAL WEATHER SERVICE KANSAS CITY/PLEASANT HILL MO
1200 AM CST SAT DEC 03 2016

KSZ040-057-103>105-MOZ028-029-037-043-030700-
...KANSAS CITY METROPOLITAN AREA...

CITY           SKY/WX    TMP DP  RH WIND       PRES   REMARKS
K.C. INTL      NOT AVBL
K.C. DOWNTOWN  PTCLDY    32  28  85 CALM      30.37R
6HR MIN TEMP:  32; 6HR MAX TEMP:  44;

LEES SUMMIT    NOT AVBL
OLATHE - IXD   NOT AVBL
OLATHE - OJC   NOT AVBL
LAWRENCE       PTCLDY    29  25  85 CALM      30.37R

$$

MOZ001>008-011>017-020>025-030>033-038>040-044>046-053-054-030700-
...NORTHERN AND CENTRAL MISSOURI...

CITY           SKY/WX    TMP DP  RH WIND       PRES   REMARKS
ST. JOSEPH     NOT AVBL
MOSBY          CLOUDY    28  27  93 CALM      30.37S
WARRENSBURG    CLEAR     30  27  86 NW3       30.36S
WHITEMAN AFB   PTCLDY    30  27  89 CALM      30.35S
6HR MIN TEMP:  28; 6HR MAX TEMP:  40;

CLINTON        CLOUDY    32  25  74 CALM      30.35F
SEDALIA        NOT AVBL
WARSAW         NOT AVBL
CHILLICOTHE      N/A     26  24  92 CALM      30.39R
6HR MIN TEMP:  26; 6HR MAX TEMP:  34;

KIRKSVILLE     PTCLDY    24  22  91 CALM      30.37R
6HR MIN TEMP:  23; 6HR MAX TEMP:  34;


$$

MOZ041-047>049-056>058-063>065-088>090-097-030700-
...EASTERN AND SOUTHERN MISSOURI...

CITY           SKY/WX    TMP DP  RH WIND       PRES   REMARKS
ST. LOUIS INTL PTCLDY    35  28  75 CALM      30.38R
6HR MIN TEMP:  33; 6HR MAX TEMP:  42;

SPIRIT OF STL  PTCLDY    28  26  92 CALM      30.37R
COLUMBIA       PTCLDY    33  27  78 SE5       30.36S WCI  29
OSAGE BEACH    PTCLDY    37  25  61 NE5       30.35S WCI  33
SPRINGFIELD    CLOUDY    46  25  43 E7        30.29S
BRANSON          N/A     45  32  61 E3        30.30S
JOPLIN         CLOUDY    47  27  45 E7        30.30

$$

IAZ060-094-KSZ022-034>040-054-083-096-NEZ052-066-093-030700-
...KANSAS...SOUTHEAST NEBRASKA AND IOWA...

CITY           SKY/WX    TMP DP  RH WIND       PRES   REMARKS
TOPEKA         NOT AVBL
MANHATTAN      CLOUDY    34  27  75 N5        30.37R WCI  30
CHANUTE        CLOUDY    44  27  51 NE8       30.31S
OMAHA          MOCLDY    28  22  78 CALM      30.34S
LINCOLN        PTCLDY    24  22  91 CALM      30.37R
DES MOINES     CLOUDY    37  29  72 CALM      30.34S

$$




USA.gov is the U.S. government's official web portal to all federal, state and local government web resources and services.